Location: Unspecified
(0.0000°N, 0.0000°E)
Time: 02:36:15
(UTC+00:00)

Hubble Space Telescope - Pass Details

Date: 18 September 2017
Orbit: 538 x 541 km, 28.5° (Epoch: 24 September)

Event Time Altitude Azimuth Distance (km) Brightness Sun altitude
Rises 18:09:44 0° 319° (NW) 2,664 5.0 -3.9°
Reaches altitude 10° 18:12:16 10° 332° (NNW) 1,777 3.8 -4.6°
Maximum altitude 18:15:42 25° 29° (NNE) 1,089 2.1 -5.4°
Drops below altitude 10° 18:19:09 10° 86° (E) 1,783 2.7 -6.3°
Enters shadow 18:19:41 - 90° (E) 1,961 2.9 -6.4°
